Saltar para o conteúdo principal

Fóia

ID 1210790 · 37.3143, -8.5957 mapa

Última leitura · 2026-05-09 19:00 (Europe/Lisbon)

Temperatura
9.7 °C
Humidade
99 %
Pressão
Precipitação
0.0 mm
Radiação
504 W/m²
Velocidade do vento
27.7 km/h
Direcção do vento
SW · Sudoeste

Histórico de 24 horas

Hora (Europe/Lisbon) Temperatura Humidade Pressão Chuva Vento Direcção
2026-05-09 19:00 9.7 °C 99 % 0.0 mm 27.7 km/h SW
2026-05-09 18:00 9.9 °C 100 % 0.0 mm 28.8 km/h SW
2026-05-09 17:00 10.2 °C 99 % 1.4 mm 34.2 km/h SW
2026-05-09 16:00 10.7 °C 98 % 0.0 mm 37.4 km/h SW
2026-05-09 15:00 10.7 °C 100 % 0.0 mm 37.1 km/h SW
2026-05-09 14:00 9.9 °C 100 % 1.8 mm 32.8 km/h S
2026-05-09 13:00 9.5 °C 100 % 0.5 mm 33.1 km/h SW
2026-05-09 12:00 9.8 °C 100 % 0.0 mm 34.2 km/h SW
2026-05-09 11:00 9.2 °C 100 % 0.1 mm 35.3 km/h SW
2026-05-09 10:00 8.8 °C 100 % 0.0 mm 34.2 km/h SW
2026-05-09 09:00 8.7 °C 100 % 0.1 mm 36.0 km/h W
2026-05-09 08:00 9.0 °C 100 % 6.5 mm 38.5 km/h SW
2026-05-09 07:00 9.4 °C 100 % 4.8 mm 59.4 km/h S
2026-05-09 06:00 9.3 °C 100 % 2.0 mm 45.7 km/h S
2026-05-09 05:00 9.4 °C 100 % 3.0 mm 58.7 km/h S
2026-05-09 04:00 9.8 °C 100 % 0.0 mm 51.8 km/h S
2026-05-09 03:00 9.3 °C 100 % 0.1 mm 40.3 km/h S
2026-05-09 02:00 9.2 °C 100 % 0.0 mm 49.0 km/h SE
2026-05-09 01:00 8.5 °C 100 % 0.6 mm 42.1 km/h S
2026-05-09 00:00 8.1 °C 100 % 0.1 mm 42.8 km/h S
2026-05-08 23:00 39.2 km/h S
2026-05-08 20:00 9.2 °C 100 % 0.1 mm 52.2 km/h S